User: anonymous   Login
Location: Unspecified
(0.0000°N, 0.0000°E)
Time: 04:13:02
(UTC+00:00)
Language:

deb DMSP - Orbit

View from above orbital plane
View from above orbital plane
View from above satellite
View from above satellite

Ground track
Ground track

The orbit data is extracted from the following two-line orbital elements,

1 24756U 97012B   17296.31305781 +.00019944 +00000-0 +12019-2 0  9998
2 24756 098.8139 065.1915 0005074 304.2106 110.4174 15.10822991085259
Epoch (UTC): 23 October 2017 07:30:48
Eccentricity: 0.0005074
inclination: 98.8139°
perigee height: 530 km
apogee height: 537 km
right ascension of ascending node: 65.1915°
argument of perigee: 304.2106°
revolutions per day: 15.10822991
mean anomaly at epoch: 110.4174°
orbit number at epoch: 8525

The dashed part of the orbit path shows where the satellite is in the earth's shadow,  

DLR